Home > Time Zones > World Clock > Weather > Iran > Tabriz > Past weeks

Flag for Iran Weather past 2 weeks in Tabriz, Iran

Now
75 °F

Passing clouds.


Feels Like: 78 °F
Forecast: 60 / 80 °F
Wind: 9 mph from Southeast

Location: Tabriz Airport

Current Time: Aug 28, 2015 at 2:06:57 PM

Latest Report: Aug 28, 2015 at 1:30 PM


Visibility: N/A

Pressure: 30.15 "Hg (25.70 "Hg at 1388m altitude)

Humidity: 41%

Dew point: 50 °F

Location of TabrizLocation

Historic Weather in Tabriz — Graph

°F

Tabriz temperature yesterday

Maximum temperature yesterday: 81 °F (at 3:30 PM)
Minimum temperature yesterday: 61 °F (at 5:00 AM)
Average temperature yesterday: 69 °F

Past Weeks' High & Low Weather Summary

 TemperatureHumidityPressure
High104 °F (Aug 13, 4:30 PM)88% (Aug 25, 9:30 PM)30.18 "Hg (Aug 25, 9:30 PM)
Low59 °F (Aug 25, 8:00 PM)6% (Aug 16, 5:30 PM)29.80 "Hg (Aug 24, 5:00 PM)
Average80 °F36%30.00 "Hg
* Reported Aug 13 12:30 PM — Aug 28 1:00 PM, Tabriz, Weather by CustomWeather, © 2015

Note: Actual official high and low records may vary slightly from our data, if they occured in-between our weather recording intervals... More about our weather records

Advertising

Tabriz weather history for previous 24 hours

 ConditionsComfort  
Time TempWeatherWind HumidityBarometerVisibility
1:00 PM
Fri, Aug 28
73 °FPassing clouds.5 mph41%30.15 "HgN/A
12:30 PM73 °FPassing clouds.12 mph44%30.15 "HgN/A
12:00 PM72 °FPassing clouds.7 mph47%30.18 "HgN/A
11:30 AM72 °FPassing clouds.9 mph47%30.18 "HgN/A
11:00 AM70 °FPassing clouds.12 mph50%30.18 "HgN/A
10:30 AM68 °FPassing clouds.14 mph49%30.18 "HgN/A
10:00 AM64 °FPassing clouds.14 mph60%30.18 "HgN/A
9:30 AM64 °FPassing clouds.9 mph60%30.18 "HgN/A
9:00 AM63 °FPassing clouds.16 mph64%30.15 "HgN/A
8:30 AM63 °FPassing clouds.12 mph64%30.15 "HgN/A
8:00 AM61 °FPassing clouds.12 mph68%30.15 "HgN/A
7:30 AM61 °FPassing clouds.14 mph63%30.15 "HgN/A
7:00 AM61 °FPassing clouds.7 mph68%30.15 "HgN/A
6:30 AM61 °FPassing clouds.9 mph68%30.15 "HgN/A
6:00 AM61 °FClear.7 mph68%30.15 "Hg10 mi
5:30 AM61 °FClear.7 mph63%30.15 "Hg10 mi
5:00 AM61 °FClear.7 mph63%30.15 "Hg10 mi
4:30 AM61 °FClear.9 mph63%30.15 "Hg10 mi
4:00 AM63 °FClear.9 mph59%30.15 "Hg10 mi
3:30 AM63 °FPassing clouds.7 mph59%30.15 "HgN/A
3:00 AM63 °FPassing clouds.9 mph64%30.15 "HgN/A
2:30 AM63 °FPassing clouds.14 mph64%30.15 "HgN/A
1:30 AM63 °FPassing clouds.7 mph64%30.15 "HgN/A
1:00 AM63 °FPassing clouds.7 mph64%30.15 "HgN/A
12:30 AM64 °FPassing clouds.18 mph60%30.15 "HgN/A
12:00 AM64 °FPassing clouds.12 mph60%30.15 "HgN/A
11:30 PM
Thu, Aug 27
64 °FPassing clouds.5 mph60%30.12 "HgN/A
11:00 PM66 °FPassing clouds.9 mph56%30.12 "HgN/A
10:30 PM68 °FPassing clouds.9 mph53%30.12 "HgN/A
10:00 PM68 °FPassing clouds.12 mph53%30.12 "HgN/A
9:30 PM68 °FPassing clouds.9 mph56%30.09 "HgN/A
9:00 PM70 °FPassing clouds.14 mph53%30.09 "HgN/A
8:30 PM70 °FPassing clouds.14 mph53%30.07 "HgN/A
8:00 PM72 °FPassing clouds.16 mph50%30.07 "HgN/A
7:30 PM75 °FPassing clouds.16 mph47%30.07 "HgN/A
7:00 PM79 °FPassing clouds.9 mph39%30.04 "HgN/A
6:30 PM79 °FPassing clouds.12 mph39%30.04 "HgN/A
6:00 PM81 °FScattered clouds.7 mph34%30.04 "HgN/A
5:30 PM81 °FScattered clouds.7 mph34%30.04 "HgN/A
5:00 PM81 °FScattered clouds.2 mph30%30.04 "HgN/A
4:30 PM81 °FScattered clouds.5 mph32%30.07 "HgN/A
4:00 PM81 °FScattered clouds.7 mph32%30.07 "HgN/A
3:30 PM81 °FScattered clouds.7 mph34%30.07 "HgN/A
3:00 PM79 °FScattered clouds.5 mph37%30.07 "HgN/A
2:00 PM77 °FScattered clouds.5 mph42%30.09 "HgN/A
Weather by CustomWeather, © 2015

See weather overviewHow to use our weather pages